QPF
0.00 0.00 0.00 0.00 0.00 0.00 0.00 0.00 0.00 0.00 0.00 0.00 0.01 0.00 0.00 0.00 0.01 0.01 0.00 0.00 0.00 0.00 0.00 0.00 0.00 0.00 0.00 0.00 0.00 0.00 0.00 0.00 0.00 0.00 0.00 0.00 0.00 0.00 0.00 0.01 0.01 0.02 0.02 0.02 0.01 0.01 0.01 0.01 0.01
0.00 0.00 0.00 0.00 0.00 0.00 0.00 0.00 0.00 0.00 0.00 0.00 0.00 0.00 0.00 0.00 0.00 0.00 0.00 0.00 0.00 0.00 0.00 0.00 0.00 0.00 0.00 0.00 0.00 0.00 0.00 0.00 0.00 0.00 0.00 0.00 0.01 0.01 0.02 0.03 0.04 0.04 0.03 0.02 0.01 0.01 0.01 0.01 0.00
0.00 0.00 0.00 0.00 0.00 0.00 0.00 0.00 0.00 0.00 0.00 0.00 0.00 0.00 0.00 0.00 0.00 0.00 0.00 0.00 0.00 0.00 0.00 0.00 0.00 0.00 0.00 0.00 0.00 0.00 0.00 0.00 0.00 0.00 0.00 0.01 0.01 0.02 0.03 0.05 0.07 0.07 0.06 0.06 0.05 0.03 0.02 0.01 0.00
0.00 0.00 0.00 0.00 0.00 0.00 0.00 0.00 0.00 0.00 0.00 0.00 0.00 0.00 0.00 0.00 0.00 0.00 0.00 0.00 0.00 0.00 0.00 0.00 0.00 0.00 0.00 0.00 0.00 0.00 0.01 0.01 0.02 0.02 0.02 0.01 0.01 0.02 0.05 0.08 0.10 0.09 0.09 0.10 0.10 0.07 0.04 0.01 0.01
0.00 0.00 0.00 0.00 0.00 0.00 0.00 0.00 0.00 0.00 0.00 0.00 0.00 0.00 0.01 0.00 0.00 0.00 0.00 0.00 0.00 0.00 0.00 0.00 0.00 0.00 0.00 0.00 0.00 0.01 0.02 0.03 0.04 0.03 0.02 0.01 0.01 0.02 0.05 0.09 0.10 0.10 0.10 0.10 0.09 0.06 0.02 0.01 0.01
0.00 0.00 0.00 0.00 0.00 0.00 0.00 0.00 0.00 0.00 0.00 0.00 0.00 0.00 0.01 0.00 0.00 0.00 0.00 0.00 0.00 0.00 0.00 0.00 0.00 0.00 0.00 0.00 0.00 0.01 0.02 0.03 0.03 0.02 0.01 0.01 0.01 0.02 0.04 0.06 0.07 0.08 0.08 0.07 0.05 0.03 0.01 0.01 0.01
0.00 0.00 0.00 0.00 0.00 0.00 0.00 0.00 0.00 0.00 0.00 0.00 0.00 0.00 0.01 0.00 0.00 0.00 0.00 0.01 0.01 0.00 0.00 0.00 0.00 0.00 0.00 0.00 0.00 0.00 0.01 0.01 0.01 0.00 0.01 0.00 0.00 0.01 0.02 0.04 0.04 0.04 0.03 0.02 0.01 0.01 0.00 0.00 0.00
0.00 0.00 0.00 0.00 0.00 0.00 0.00 0.00 0.00 0.00 0.00 0.00 0.00 0.00 0.00 0.00 0.00 0.00 0.01 0.01 0.01 0.00 0.00 0.00 0.00 0.00 0.00 0.00 0.00 0.00 0.00 0.00 0.00 0.00 0.00 0.00 0.01 0.01 0.02 0.02 0.03 0.03 0.02 0.00 0.00 0.00 0.00 0.00 0.00
0.00 0.00 0.00 0.00 0.00 0.00 0.00 0.00 0.00 0.00 0.00 0.00 0.00 0.00 0.00 0.00 0.00 0.00 0.01 0.02 0.01 0.00 0.00 0.00 0.00 0.00 0.00 0.00 0.00 0.00 0.00 0.00 0.00 0.00 0.01 0.01 0.00 0.00 0.01 0.01 0.02 0.02 0.01 0.00 0.00 0.00 0.00 0.00 0.00
0.00 0.00 0.00 0.00 0.00 0.00 0.00 0.00 0.00 0.00 0.00 0.00 0.00 0.00 0.00 0.00 0.00 0.00 0.01 0.02 0.02 0.02 0.01 0.00 0.00 0.00 0.00 0.00 0.00 0.00 0.00 0.00 0.00 0.00 0.00 0.00 0.00 0.00 0.00 0.01 0.01 0.01 0.00 0.00 0.00 0.00 0.00 0.00 0.00
0.00 0.00 0.00 0.00 0.00 0.00 0.00 0.00 0.00 0.00 0.00 0.00 0.00 0.00 0.00 0.00 0.00 0.00 0.01 0.02 0.03 0.04 0.02 0.01 0.00 0.00 0.00 0.00 0.00 0.00 0.00 0.00 0.00 0.00 0.00 0.00 0.00 0.00 0.00 0.00 0.00 0.00 0.00 0.00 0.00 0.00 0.00 0.00 0.00
0.00 0.00 0.00 0.00 0.00 0.00 0.00 0.00 0.00 0.00 0.00 0.00 0.00 0.00 0.00 0.00 0.00 0.01 0.01 0.01 0.04 0.06 0.03 0.01 0.01 0.00 0.00 0.00 0.00 0.00 0.00 0.00 0.00 0.00 0.00 0.00 0.00 0.00 0.00 0.00 0.00 0.00 0.00 0.00 0.00 0.00 0.00 0.00 0.00
0.00 0.00 0.00 0.00 0.00 0.00 0.00 0.00 0.00 0.00 0.00 0.00 0.00 0.00 0.00 0.00 0.00 0.01 0.01 0.01 0.03 0.04 0.03 0.02 0.01 0.00 0.00 0.00 0.00 0.00 0.00 0.00 0.00 0.00 0.00 0.00 0.00 0.00 0.00 0.00 0.00 0.00 0.00 0.00 0.00 0.00 0.00 0.00 0.00
0.00 0.00 0.00 0.00 0.00 0.00 0.00 0.00 0.00 0.00 0.00 0.00 0.00 0.00 0.00 0.00 0.00 0.00 0.01 0.01 0.03 0.03 0.03 0.02 0.01 0.00 0.00 0.00 0.00 0.00 0.00 0.01 0.02 0.01 0.00 0.00 0.00 0.00 0.00 0.00 0.00 0.00 0.00 0.00 0.00 0.00 0.00 0.00 0.00
0.00 0.00 0.00 0.00 0.00 0.00 0.00 0.00 0.00 0.00 0.00 0.00 0.00 0.00 0.00 0.00 0.00 0.00 0.01 0.02 0.03 0.04 0.03 0.01 0.01 0.01 0.01 0.00 0.00 0.01 0.02 0.03 0.03 0.02 0.01 0.00 0.00 0.00 0.00 0.00 0.00 0.00 0.00 0.00 0.00 0.00 0.00 0.00 0.00
0.00 0.00 0.00 0.00 0.00 0.00 0.00 0.00 0.00 0.00 0.00 0.00 0.00 0.00 0.00 0.00 0.00 0.01 0.02 0.03 0.03 0.03 0.01 0.01 0.01 0.01 0.00 0.00 0.00 0.00 0.01 0.01 0.01 0.01 0.00 0.00 0.00 0.00 0.00 0.00 0.00 0.00 0.00 0.00 0.01 0.01 0.01 0.01 0.01
0.00 0.00 0.00 0.00 0.00 0.00 0.00 0.00 0.00 0.00 0.00 0.00 0.00 0.00 0.00 0.00 0.00 0.01 0.03 0.05 0.06 0.04 0.02 0.02 0.02 0.01 0.00 0.00 0.00 0.00 0.00 0.00 0.00 0.00 0.00 0.00 0.00 0.00 0.00 0.00 0.00 0.00 0.00 0.00 0.01 0.01 0.01 0.01 0.01
0.00 0.00 0.00 0.00 0.00 0.00 0.00 0.00 0.00 0.00 0.00 0.00 0.00 0.00 0.00 0.00 0.00 0.01 0.03 0.06 0.06 0.04 0.04 0.03 0.02 0.01 0.00 0.00 0.00 0.00 0.00 0.00 0.00 0.00 0.00 0.00 0.00 0.00 0.00 0.01 0.01 0.01 0.00 0.00 0.00 0.00 0.00 0.01 0.01
0.00 0.00 0.00 0.00 0.00 0.00 0.00 0.00 0.00 0.00 0.00 0.00 0.00 0.00 0.00 0.00 0.00 0.01 0.03 0.06 0.06 0.05 0.05 0.03 0.02 0.01 0.00 0.00 0.00 0.00 0.00 0.00 0.00 0.00 0.00 0.00 0.01 0.01 0.01 0.01 0.00 0.00 0.00 0.00 0.00 0.00 0.00 0.00 0.01
0.00 0.00 0.00 0.00 0.00 0.00 0.00 0.00 0.00 0.00 0.00 0.00 0.00 0.00 0.00 0.00 0.00 0.01 0.03 0.05 0.07 0.08 0.06 0.04 0.03 0.01 0.01 0.00 0.00 0.00 0.00 0.00 0.00 0.00 0.00 0.00 0.00 0.01 0.00 0.00 0.00 0.00 0.00 0.00 0.00 0.00 0.00 0.00 0.00
0.00 0.00 0.00 0.00 0.00 0.00 0.00 0.00 0.00 0.00 0.00 0.00 0.00 0.00 0.00 0.00 0.01 0.01 0.03 0.06 0.08 0.08 0.06 0.04 0.03 0.02 0.01 0.01 0.00 0.00 0.00 0.00 0.00 0.00 0.00 0.00 0.00 0.00 0.00 0.00 0.00 0.00 0.00 0.00 0.00 0.00 0.00 0.00 0.00
0.00 0.00 0.00 0.00 0.00 0.00 0.00 0.00 0.00 0.00 0.00 0.00 0.01 0.01 0.01 0.01 0.01 0.01 0.02 0.05 0.08 0.08 0.05 0.03 0.03 0.02 0.01 0.01 0.00 0.00 0.00 0.00 0.00 0.00 0.00 0.00 0.00 0.00 0.00 0.00 0.00 0.00 0.00 0.00 0.00 0.00 0.00 0.00 0.00
0.00 0.00 0.00 0.00 0.00 0.00 0.00 0.00 0.00 0.00 0.00 0.00 0.01 0.01 0.01 0.01 0.01 0.02 0.03 0.04 0.07 0.06 0.05 0.03 0.02 0.01 0.01 0.00 0.00 0.00 0.00 0.00 0.00 0.00 0.00 0.00 0.00 0.00 0.00 0.00 0.00 0.00 0.00 0.00 0.00 0.00 0.00 0.00 0.00
0.00 0.00 0.00 0.00 0.00 0.00 0.00 0.00 0.00 0.00 0.00 0.00 0.01 0.01 0.01 0.01 0.01 0.02 0.03 0.05 0.05 0.04 0.03 0.02 0.01 0.01 0.00 0.00 0.00 0.00 0.00 0.00 0.00 0.00 0.00 0.00 0.00 0.00 0.00 0.00 0.00 0.00 0.00 0.00 0.00 0.00 0.00 0.00 0.00
0.00 0.00 0.00 0.00 0.00 0.00 0.00 0.00 0.00 0.00 0.00 0.00 0.00 0.01 0.01 0.02 0.02 0.02 0.04 0.04 0.03 0.02 0.01 0.01 0.00 0.00 0.00 0.00 0.00 0.00 0.00 0.00 0.00 0.00 0.00 0.00 0.00 0.00 0.00 0.00 0.00 0.00 0.00 0.00 0.00 0.00 0.00 0.00 0.00
0.00 0.00 0.00 0.00 0.00 0.00 0.00 0.00 0.00 0.00 0.00 0.00 0.00 0.00 0.01 0.02 0.02 0.03 0.04 0.03 0.02 0.01 0.01 0.00 0.00 0.00 0.00 0.00 0.00 0.00 0.00 0.00 0.00 0.00 0.00 0.00 0.00 0.00 0.00 0.00 0.00 0.00 0.00 0.00 0.00 0.00 0.00 0.00 0.00
0.00 0.00 0.00 0.00 0.00 0.00 0.00 0.00 0.00 0.00 0.00 0.00 0.00 0.00 0.01 0.02 0.03 0.05 0.04 0.03 0.02 0.01 0.00 0.00 0.00 0.00 0.00 0.00 0.00 0.00 0.00 0.00 0.00 0.00 0.00 0.00 0.00 0.00 0.00 0.00 0.00 0.00 0.00 0.00 0.00 0.00 0.00 0.00 0.00
0.00 0.00 0.00 0.00 0.00 0.00 0.00 0.00 0.00 0.00 0.00 0.00 0.00 0.00 0.01 0.04 0.06 0.07 0.04 0.03 0.02 0.01 0.00 0.00 0.00 0.00 0.00 0.00 0.00 0.00 0.00 0.00 0.00 0.00 0.00 0.00 0.00 0.00 0.00 0.00 0.00 0.00 0.00 0.00 0.00 0.00 0.00 0.00 0.00
0.00 0.00 0.00 0.00 0.00 0.00 0.00 0.00 0.00 0.00 0.00 0.00 0.00 0.01 0.04 0.06 0.08 0.08 0.05 0.04 0.03 0.01 0.00 0.00 0.00 0.00 0.00 0.00 0.00 0.00 0.00 0.00 0.00 0.00 0.00 0.00 0.00 0.00 0.00 0.00 0.00 0.00 0.00 0.00 0.00 0.00 0.00 0.00 0.00
0.00 0.00 0.00 0.00 0.00 0.00 0.00 0.00 0.00 0.00 0.00 0.00 0.01 0.03 0.06 0.08 0.08 0.07 0.05 0.04 0.02 0.01 0.01 0.01 0.00 0.00 0.00 0.00 0.00 0.00 0.00 0.00 0.00 0.00 0.00 0.00 0.00 0.00 0.00 0.00 0.00 0.00 0.00 0.00 0.00 0.00 0.00 0.00 0.00
MSLP
1010.88 1011.97 1013.17 1014.31 1015.20 1015.75 1015.90 1015.72 1015.31 1014.82 1014.40 1014.15 1014.10 1014.23 1014.44 1014.63 1014.71 1014.62 1014.36 1013.97 1013.56 1013.20 1012.99 1012.97 1013.13 1013.43 1013.79 1014.14 1014.43 1014.63 1014.76 1014.85 1014.94 1015.08 1015.28 1015.52 1015.79 1016.03 1016.21 1016.32 1016.34 1016.32 1016.28 1016.26 1016.30 1016.39 1016.52 1016.66 1016.77
1011.33 1012.56 1013.81 1014.89 1015.64 1015.97 1015.87 1015.42 1014.78 1014.11 1013.57 1013.26 1013.21 1013.37 1013.65 1013.93 1014.10 1014.10 1013.93 1013.64 1013.31 1013.04 1012.92 1012.96 1013.18 1013.52 1013.91 1014.28 1014.58 1014.79 1014.93 1015.04 1015.15 1015.30 1015.50 1015.74 1015.99 1016.20 1016.35 1016.42 1016.41 1016.37 1016.33 1016.32 1016.36 1016.45 1016.58 1016.72 1016.82
1011.89 1013.18 1014.40 1015.36 1015.92 1016.02 1015.67 1015.00 1014.18 1013.39 1012.80 1012.49 1012.47 1012.69 1013.04 1013.38 1013.62 1013.69 1013.58 1013.36 1013.12 1012.93 1012.88 1013.00 1013.27 1013.64 1014.05 1014.43 1014.73 1014.94 1015.08 1015.18 1015.29 1015.44 1015.63 1015.86 1016.08 1016.26 1016.37 1016.41 1016.39 1016.35 1016.30 1016.30 1016.36 1016.47 1016.60 1016.73 1016.83
1012.52 1013.79 1014.92 1015.70 1016.04 1015.90 1015.35 1014.52 1013.60 1012.78 1012.21 1011.95 1012.00 1012.29 1012.70 1013.09 1013.36 1013.45 1013.39 1013.21 1013.02 1012.91 1012.92 1013.09 1013.41 1013.81 1014.22 1014.59 1014.87 1015.07 1015.19 1015.28 1015.39 1015.53 1015.71 1015.91 1016.11 1016.26 1016.35 1016.38 1016.35 1016.31 1016.28 1016.30 1016.37 1016.49 1016.63 1016.76 1016.86
1013.17 1014.36 1015.32 1015.89 1016.00 1015.65 1014.94 1014.03 1013.09 1012.32 1011.83 1011.68 1011.83 1012.20 1012.65 1013.06 1013.33 1013.43 1013.37 1013.22 1013.07 1012.99 1013.06 1013.27 1013.61 1014.02 1014.42 1014.76 1015.02 1015.18 1015.28 1015.36 1015.46 1015.59 1015.77 1015.96 1016.14 1016.28 1016.36 1016.37 1016.35 1016.32 1016.31 1016.35 1016.44 1016.58 1016.72 1016.85 1016.93
1013.76 1014.81 1015.55 1015.89 1015.78 1015.26 1014.45 1013.52 1012.64 1011.99 1011.65 1011.64 1011.91 1012.35 1012.83 1013.24 1013.49 1013.57 1013.50 1013.35 1013.22 1013.18 1013.28 1013.51 1013.86 1014.25 1014.62 1014.92 1015.14 1015.27 1015.36 1015.43 1015.52 1015.67 1015.84 1016.04 1016.22 1016.35 1016.43 1016.45 1016.43 1016.42 1016.43 1016.49 1016.60 1016.74 1016.88 1017.00 1017.07
1014.21 1015.06 1015.57 1015.67 1015.35 1014.70 1013.85 1012.96 1012.21 1011.72 1011.56 1011.71 1012.10 1012.61 1013.11 1013.51 1013.74 1013.78 1013.70 1013.56 1013.44 1013.43 1013.54 1013.78 1014.11 1014.46 1014.79 1015.05 1015.22 1015.33 1015.40 1015.48 1015.59 1015.76 1015.96 1016.17 1016.36 1016.50 1016.58 1016.61 1016.60 1016.59 1016.62 1016.69 1016.81 1016.95 1017.09 1017.20 1017.25
1014.45 1015.08 1015.34 1015.21 1014.72 1013.98 1013.13 1012.33 1011.73 1011.42 1011.44 1011.74 1012.24 1012.80 1013.33 1013.71 1013.92 1013.95 1013.86 1013.74 1013.65 1013.66 1013.78 1014.02 1014.32 1014.64 1014.91 1015.12 1015.26 1015.34 1015.42 1015.52 1015.67 1015.87 1016.10 1016.34 1016.55 1016.70 1016.78 1016.81 1016.80 1016.80 1016.84 1016.91 1017.03 1017.18 1017.31 1017.40 1017.45
1014.44 1014.84 1014.87 1014.54 1013.91 1013.12 1012.30 1011.61 1011.16 1011.03 1011.20 1011.62 1012.20 1012.80 1013.34 1013.72 1013.92 1013.96 1013.90 1013.82 1013.77 1013.81 1013.96 1014.19 1014.46 1014.73 1014.96 1015.12 1015.23 1015.32 1015.41 1015.54 1015.74 1015.98 1016.26 1016.52 1016.75 1016.90 1016.98 1017.00 1016.99 1016.99 1017.02 1017.10 1017.23 1017.37 1017.50 1017.59 1017.62
1014.21 1014.39 1014.21 1013.72 1013.00 1012.19 1011.42 1010.84 1010.52 1010.52 1010.81 1011.31 1011.93 1012.55 1013.08 1013.47 1013.69 1013.77 1013.76 1013.75 1013.77 1013.86 1014.04 1014.27 1014.52 1014.75 1014.94 1015.07 1015.17 1015.27 1015.39 1015.56 1015.80 1016.10 1016.40 1016.69 1016.92 1017.07 1017.13 1017.14 1017.12 1017.11 1017.15 1017.23 1017.35 1017.50 1017.63 1017.72 1017.74
1013.82 1013.81 1013.47 1012.86 1012.09 1011.29 1010.59 1010.09 1009.88 1009.97 1010.32 1010.85 1011.46 1012.07 1012.60 1012.99 1013.24 1013.38 1013.46 1013.54 1013.64 1013.80 1014.01 1014.26 1014.49 1014.71 1014.87 1015.00 1015.10 1015.22 1015.38 1015.60 1015.89 1016.21 1016.54 1016.82 1017.04 1017.17 1017.22 1017.21 1017.18 1017.16 1017.20 1017.28 1017.41 1017.56 1017.70 1017.79 1017.81
1013.38 1013.23 1012.77 1012.10 1011.32 1010.56 1009.93 1009.51 1009.37 1009.49 1009.84 1010.35 1010.92 1011.49 1011.99 1012.38 1012.68 1012.90 1013.07 1013.25 1013.44 1013.67 1013.93 1014.19 1014.43 1014.63 1014.80 1014.93 1015.07 1015.22 1015.43 1015.69 1016.00 1016.34 1016.67 1016.94 1017.13 1017.24 1017.26 1017.23 1017.19 1017.17 1017.20 1017.29 1017.42 1017.58 1017.72 1017.81 1017.84
1013.01 1012.76 1012.24 1011.56 1010.81 1010.12 1009.57 1009.22 1009.11 1009.23 1009.53 1009.96 1010.46 1010.95 1011.41 1011.81 1012.14 1012.43 1012.70 1012.97 1013.25 1013.54 1013.83 1014.12 1014.37 1014.58 1014.77 1014.93 1015.11 1015.31 1015.56 1015.86 1016.19 1016.52 1016.82 1017.06 1017.21 1017.28 1017.28 1017.24 1017.19 1017.17 1017.21 1017.30 1017.44 1017.59 1017.73 1017.82 1017.85
1012.81 1012.50 1011.98 1011.34 1010.68 1010.08 1009.61 1009.32 1009.21 1009.29 1009.51 1009.84 1010.23 1010.64 1011.04 1011.42 1011.78 1012.13 1012.46 1012.80 1013.14 1013.47 1013.79 1014.09 1014.36 1014.60 1014.82 1015.04 1015.27 1015.53 1015.82 1016.14 1016.46 1016.77 1017.03 1017.22 1017.33 1017.36 1017.34 1017.29 1017.25 1017.24 1017.28 1017.38 1017.50 1017.64 1017.76 1017.84 1017.86
1012.81 1012.49 1012.01 1011.46 1010.91 1010.43 1010.05 1009.80 1009.69 1009.71 1009.83 1010.04 1010.31 1010.62 1010.96 1011.32 1011.69 1012.07 1012.44 1012.82 1013.18 1013.53 1013.85 1014.16 1014.44 1014.72 1014.99 1015.27 1015.56 1015.88 1016.21 1016.53 1016.84 1017.11 1017.32 1017.45 1017.51 1017.52 1017.48 1017.44 1017.41 1017.42 1017.47 1017.55 1017.65 1017.76 1017.84 1017.88 1017.88
1013.00 1012.69 1012.29 1011.86 1011.45 1011.10 1010.81 1010.61 1010.48 1010.43 1010.45 1010.54 1010.69 1010.91 1011.19 1011.52 1011.89 1012.28 1012.66 1013.04 1013.40 1013.73 1014.04 1014.34 1014.63 1014.94 1015.26 1015.61 1015.97 1016.34 1016.70 1017.03 1017.32 1017.53 1017.68 1017.76 1017.78 1017.76 1017.73 1017.70 1017.69 1017.72 1017.76 1017.83 1017.90 1017.95 1017.98 1017.97 1017.93
1013.30 1013.04 1012.75 1012.46 1012.20 1011.97 1011.77 1011.60 1011.45 1011.33 1011.25 1011.22 1011.28 1011.42 1011.65 1011.96 1012.32 1012.70 1013.09 1013.45 1013.77 1014.07 1014.34 1014.62 1014.92 1015.25 1015.62 1016.03 1016.46 1016.88 1017.27 1017.60 1017.85 1018.02 1018.11 1018.13 1018.12 1018.09 1018.07 1018.06 1018.08 1018.12 1018.17 1018.20 1018.23 1018.22 1018.18 1018.11 1018.02
1013.61 1013.44 1013.27 1013.13 1013.01 1012.90 1012.77 1012.62 1012.43 1012.23 1012.05 1011.93 1011.90 1011.99 1012.19 1012.49 1012.86 1013.25 1013.63 1013.97 1014.25 1014.50 1014.73 1014.98 1015.27 1015.62 1016.04 1016.51 1017.00 1017.46 1017.87 1018.19 1018.41 1018.53 1018.57 1018.55 1018.51 1018.48 1018.47 1018.49 1018.54 1018.59 1018.63 1018.64 1018.61 1018.53 1018.43 1018.30 1018.16
1013.83 1013.76 1013.74 1013.74 1013.76 1013.75 1013.67 1013.51 1013.27 1012.99 1012.71 1012.50 1012.41 1012.47 1012.67 1013.00 1013.39 1013.81 1014.19 1014.52 1014.77 1014.97 1015.16 1015.38 1015.66 1016.03 1016.48 1017.00 1017.53 1018.03 1018.45 1018.76 1018.95 1019.03 1019.03 1018.98 1018.92 1018.90 1018.90 1018.95 1019.01 1019.08 1019.11 1019.08 1019.01 1018.88 1018.71 1018.54 1018.37
1013.90 1013.96 1014.08 1014.24 1014.37 1014.44 1014.38 1014.18 1013.87 1013.48 1013.11 1012.82 1012.69 1012.73 1012.96 1013.34 1013.79 1014.26 1014.69 1015.02 1015.27 1015.45 1015.61 1015.80 1016.07 1016.45 1016.92 1017.47 1018.03 1018.55 1018.99 1019.29 1019.46 1019.50 1019.47 1019.40 1019.33 1019.30 1019.32 1019.38 1019.46 1019.52 1019.55 1019.50 1019.39 1019.23 1019.02 1018.82 1018.64
1013.78 1013.99 1014.28 1014.57 1014.82 1014.93 1014.86 1014.60 1014.19 1013.69 1013.21 1012.85 1012.67 1012.72 1013.00 1013.45 1014.00 1014.56 1015.05 1015.44 1015.71 1015.90 1016.05 1016.23 1016.49 1016.87 1017.35 1017.91 1018.49 1019.02 1019.46 1019.75 1019.90 1019.93 1019.87 1019.78 1019.70 1019.67 1019.69 1019.76 1019.84 1019.90 1019.91 1019.85 1019.73 1019.55 1019.34 1019.13 1018.95
1013.49 1013.87 1014.33 1014.77 1015.11 1015.25 1015.16 1014.82 1014.29 1013.66 1013.07 1012.62 1012.41 1012.47 1012.80 1013.35 1014.00 1014.68 1015.28 1015.76 1016.09 1016.31 1016.48 1016.67 1016.93 1017.30 1017.78 1018.33 1018.91 1019.44 1019.87 1020.16 1020.29 1020.30 1020.23 1020.12 1020.03 1019.98 1020.00 1020.05 1020.12 1020.18 1020.18 1020.12 1019.99 1019.82 1019.63 1019.44 1019.29
1013.08 1013.65 1014.29 1014.87 1015.29 1015.46 1015.33 1014.90 1014.25 1013.49 1012.77 1012.24 1011.99 1012.06 1012.45 1013.09 1013.88 1014.68 1015.41 1016.00 1016.42 1016.71 1016.92 1017.12 1017.38 1017.74 1018.21 1018.74 1019.30 1019.82 1020.23 1020.50 1020.63 1020.63 1020.54 1020.42 1020.31 1020.24 1020.23 1020.26 1020.31 1020.34 1020.33 1020.27 1020.16 1020.01 1019.86 1019.72 1019.60
1012.62 1013.38 1014.19 1014.91 1015.41 1015.60 1015.42 1014.91 1014.14 1013.26 1012.44 1011.82 1011.53 1011.61 1012.05 1012.78 1013.69 1014.63 1015.50 1016.21 1016.75 1017.12 1017.38 1017.61 1017.87 1018.22 1018.65 1019.15 1019.68 1020.16 1020.55 1020.80 1020.91 1020.90 1020.80 1020.66 1020.53 1020.43 1020.38 1020.38 1020.39 1020.40 1020.38 1020.32 1020.22 1020.11 1020.00 1019.91 1019.83
1012.18 1013.10 1014.06 1014.89 1015.46 1015.67 1015.47 1014.88 1014.02 1013.04 1012.13 1011.45 1011.13 1011.22 1011.70 1012.51 1013.52 1014.59 1015.59 1016.44 1017.08 1017.54 1017.87 1018.13 1018.39 1018.71 1019.11 1019.56 1020.03 1020.47 1020.82 1021.04 1021.14 1021.11 1020.99 1020.83 1020.67 1020.54 1020.45 1020.40 1020.37 1020.34 1020.31 1020.25 1020.18 1020.10 1020.03 1019.97 1019.93
1011.79 1012.83 1013.89 1014.81 1015.43 1015.64 1015.42 1014.80 1013.88 1012.85 1011.89 1011.17 1010.83 1010.93 1011.46 1012.34 1013.44 1014.61 1015.73 1016.69 1017.44 1017.99 1018.37 1018.66 1018.92 1019.22 1019.56 1019.95 1020.35 1020.72 1021.02 1021.21 1021.27 1021.23 1021.09 1020.91 1020.72 1020.55 1020.42 1020.32 1020.25 1020.19 1020.14 1020.08 1020.02 1019.97 1019.93 1019.90 1019.87
1011.48 1012.57 1013.68 1014.62 1015.25 1015.47 1015.24 1014.60 1013.68 1012.63 1011.67 1010.96 1010.64 1010.77 1011.34 1012.28 1013.45 1014.71 1015.91 1016.96 1017.81 1018.43 1018.87 1019.19 1019.44 1019.70 1019.98 1020.29 1020.61 1020.91 1021.14 1021.28 1021.30 1021.23 1021.07 1020.87 1020.66 1020.46 1020.28 1020.15 1020.04 1019.96 1019.89 1019.83 1019.78 1019.74 1019.71 1019.68 1019.65
1011.26 1012.32 1013.39 1014.29 1014.89 1015.09 1014.85 1014.23 1013.33 1012.33 1011.43 1010.78 1010.52 1010.70 1011.32 1012.30 1013.53 1014.85 1016.12 1017.24 1018.16 1018.84 1019.33 1019.66 1019.90 1020.12 1020.33 1020.56 1020.79 1021.00 1021.15 1021.22 1021.21 1021.10 1020.93 1020.71 1020.48 1020.26 1020.06 1019.90 1019.77 1019.67 1019.59 1019.53 1019.48 1019.44 1019.40 1019.36 1019.31
1011.15 1012.08 1013.02 1013.80 1014.31 1014.45 1014.20 1013.61 1012.79 1011.89 1011.09 1010.56 1010.40 1010.66 1011.35 1012.38 1013.64 1015.00 1016.32 1017.49 1018.45 1019.18 1019.69 1020.04 1020.26 1020.43 1020.58 1020.72 1020.85 1020.97 1021.04 1021.05 1020.98 1020.84 1020.65 1020.43 1020.19 1019.97 1019.77 1019.60 1019.47 1019.36 1019.28 1019.21 1019.16 1019.11 1019.06 1018.99 1018.88
1011.12 1011.85 1012.58 1013.18 1013.54 1013.59 1013.32 1012.77 1012.05 1011.29 1010.65 1010.27 1010.24 1010.62 1011.38 1012.46 1013.76 1015.13 1016.47 1017.66 1018.65 1019.40 1019.94 1020.28 1020.50 1020.62 1020.71 1020.77 1020.81 1020.84 1020.82 1020.76 1020.65 1020.49 1020.29 1020.07 1019.85 1019.64 1019.45 1019.30 1019.18 1019.08 1019.00 1018.93 1018.87 1018.80 1018.71 1018.60 1018.44
Thickness
5788 5787 5784 5774 5752 5730 5737 5754 5767 5776 5780 5786 5787 5781 5772 5764 5757 5753 5771 5779 5776 5772 5768 5764 5760 5757 5754 5753 5751 5750 5749 5748 5747 5746 5746 5745 5744 5744 5744 5744 5743 5743 5742 5742 5741 5740 5740 5739 5739
5788 5785 5776 5760 5737 5725 5738 5760 5767 5779 5785 5789 5787 5781 5773 5768 5771 5770 5772 5774 5772 5769 5765 5760 5757 5753 5750 5748 5746 5745 5745 5744 5743 5742 5741 5740 5739 5739 5739 5739 5739 5738 5738 5737 5736 5735 5734 5734 5733
5787 5783 5763 5746 5735 5733 5753 5771 5776 5784 5790 5787 5780 5779 5773 5768 5772 5772 5773 5773 5769 5766 5761 5757 5754 5751 5748 5745 5744 5742 5741 5741 5740 5739 5738 5736 5736 5735 5734 5734 5734 5733 5733 5732 5731 5730 5728 5728 5728
5781 5769 5756 5743 5746 5754 5766 5780 5784 5782 5785 5786 5779 5770 5774 5780 5778 5776 5774 5771 5767 5763 5759 5756 5752 5749 5746 5744 5742 5740 5739 5738 5737 5736 5734 5733 5732 5731 5731 5730 5729 5729 5728 5727 5726 5725 5723 5723 5722
5774 5757 5744 5736 5749 5764 5776 5786 5787 5781 5780 5781 5777 5767 5767 5778 5780 5776 5772 5768 5764 5761 5758 5755 5751 5748 5745 5743 5741 5740 5738 5737 5735 5734 5732 5730 5729 5728 5727 5726 5725 5725 5724 5723 5721 5720 5718 5717 5716
5758 5749 5733 5735 5751 5768 5781 5791 5788 5781 5778 5779 5775 5766 5765 5775 5774 5772 5770 5766 5763 5759 5756 5753 5750 5747 5745 5743 5741 5739 5738 5736 5734 5732 5730 5728 5727 5725 5724 5723 5721 5721 5720 5719 5717 5715 5713 5712 5711
5754 5742 5738 5745 5749 5762 5784 5793 5788 5780 5776 5777 5779 5764 5764 5769 5772 5771 5767 5763 5759 5757 5754 5751 5748 5746 5744 5742 5740 5738 5736 5734 5732 5730 5728 5726 5724 5722 5721 5719 5717 5716 5715 5714 5712 5711 5709 5707 5706
5763 5748 5744 5742 5749 5762 5785 5792 5794 5786 5779 5787 5783 5767 5763 5771 5773 5769 5763 5758 5756 5754 5752 5750 5748 5745 5743 5741 5739 5737 5734 5732 5729 5726 5724 5722 5720 5718 5716 5714 5712 5711 5709 5707 5706 5704 5703 5701 5700
5768 5741 5735 5746 5755 5770 5785 5788 5791 5795 5785 5784 5786 5782 5782 5779 5773 5765 5758 5753 5752 5751 5750 5749 5747 5745 5742 5740 5737 5734 5731 5728 5725 5722 5719 5717 5714 5712 5710 5709 5706 5704 5702 5700 5699 5697 5696 5695 5693
5758 5738 5749 5764 5773 5779 5782 5787 5789 5784 5777 5776 5778 5781 5782 5776 5769 5762 5757 5753 5751 5750 5750 5749 5746 5743 5740 5737 5734 5731 5727 5724 5721 5718 5715 5712 5709 5707 5704 5702 5700 5698 5696 5694 5692 5690 5689 5688 5687
5760 5752 5764 5774 5781 5784 5783 5788 5792 5781 5771 5780 5780 5778 5776 5771 5766 5762 5758 5756 5754 5753 5751 5749 5746 5741 5737 5734 5730 5727 5724 5720 5717 5714 5711 5708 5704 5702 5699 5697 5694 5692 5690 5687 5685 5684 5682 5681 5680
5759 5764 5770 5778 5787 5785 5787 5790 5786 5786 5791 5802 5796 5790 5779 5771 5767 5764 5760 5758 5755 5753 5751 5747 5743 5739 5735 5731 5727 5723 5720 5716 5713 5710 5706 5703 5700 5697 5695 5692 5689 5686 5684 5681 5679 5677 5675 5674 5672
5760 5765 5777 5783 5784 5785 5789 5787 5787 5787 5796 5798 5791 5783 5777 5772 5769 5766 5762 5758 5754 5751 5748 5745 5740 5736 5732 5728 5724 5719 5716 5712 5709 5705 5702 5699 5696 5693 5690 5687 5685 5682 5679 5676 5674 5671 5669 5666 5664
5763 5768 5773 5778 5782 5788 5786 5786 5783 5783 5791 5789 5784 5778 5775 5773 5770 5764 5759 5755 5751 5749 5745 5741 5736 5733 5729 5724 5720 5716 5711 5707 5703 5700 5697 5695 5692 5689 5686 5682 5680 5677 5674 5672 5669 5666 5663 5659 5657
5761 5761 5767 5775 5775 5781 5784 5772 5774 5779 5783 5779 5777 5775 5773 5771 5768 5764 5760 5755 5750 5745 5742 5737 5733 5729 5725 5720 5716 5711 5706 5702 5697 5694 5691 5688 5685 5682 5679 5676 5673 5670 5667 5664 5661 5659 5655 5652 5648
5755 5748 5745 5761 5766 5773 5771 5755 5767 5772 5772 5768 5770 5770 5769 5767 5765 5762 5757 5751 5746 5740 5736 5732 5729 5723 5719 5714 5709 5705 5700 5696 5691 5687 5684 5681 5678 5675 5672 5668 5665 5662 5659 5656 5652 5649 5645 5640 5636
5729 5727 5735 5748 5759 5761 5757 5751 5759 5761 5762 5761 5763 5765 5764 5761 5757 5754 5750 5744 5739 5734 5729 5724 5720 5716 5711 5707 5702 5697 5692 5687 5682 5679 5675 5671 5668 5665 5662 5658 5654 5651 5647 5644 5640 5635 5631 5626 5623
5715 5722 5728 5734 5747 5749 5743 5740 5745 5750 5752 5752 5756 5758 5758 5754 5750 5746 5742 5736 5731 5726 5721 5716 5712 5708 5704 5699 5694 5688 5681 5676 5672 5668 5663 5660 5656 5652 5649 5644 5640 5636 5632 5627 5623 5619 5615 5610 5607
5721 5719 5718 5728 5742 5738 5730 5727 5732 5739 5739 5738 5740 5743 5745 5744 5740 5737 5732 5728 5723 5717 5712 5708 5703 5698 5694 5689 5683 5676 5668 5663 5659 5655 5651 5647 5643 5639 5635 5630 5625 5621 5616 5611 5607 5603 5599 5594 5591
5712 5709 5711 5723 5735 5729 5720 5719 5724 5729 5731 5733 5732 5732 5731 5730 5728 5725 5722 5718 5713 5707 5702 5696 5691 5687 5683 5678 5672 5664 5657 5651 5647 5643 5639 5635 5631 5626 5621 5616 5611 5606 5600 5596 5591 5587 5582 5577 5573
5704 5703 5709 5713 5720 5718 5713 5706 5712 5719 5725 5727 5727 5727 5725 5723 5719 5716 5712 5707 5702 5696 5692 5686 5680 5675 5670 5666 5660 5653 5647 5641 5636 5631 5627 5623 5618 5613 5608 5602 5597 5591 5585 5580 5574 5569 5564 5559 5555
5694 5709 5709 5708 5697 5688 5701 5680 5700 5708 5713 5719 5721 5721 5720 5718 5713 5708 5702 5696 5691 5685 5681 5676 5670 5664 5659 5654 5648 5643 5636 5629 5623 5619 5616 5612 5607 5601 5595 5589 5583 5576 5569 5563 5557 5551 5545 5540 5537
5702 5713 5706 5701 5692 5682 5685 5675 5681 5698 5702 5712 5717 5718 5716 5713 5707 5701 5694 5688 5682 5676 5671 5665 5659 5653 5647 5643 5637 5631 5625 5619 5613 5609 5605 5600 5595 5588 5582 5575 5567 5560 5553 5546 5540 5533 5527 5523 5519
5708 5702 5688 5676 5670 5663 5680 5668 5672 5690 5706 5714 5716 5716 5712 5707 5701 5693 5686 5679 5672 5666 5661 5655 5648 5641 5636 5631 5625 5620 5615 5609 5604 5599 5594 5587 5581 5573 5566 5559 5551 5544 5538 5531 5524 5518 5513 5509 5505
5698 5675 5652 5653 5643 5654 5683 5670 5676 5704 5716 5719 5717 5712 5707 5701 5693 5684 5676 5669 5663 5656 5650 5643 5638 5630 5624 5620 5614 5609 5604 5599 5594 5588 5582 5575 5567 5560 5552 5545 5538 5531 5524 5518 5511 5506 5501 5497 5495
5682 5672 5648 5641 5641 5656 5675 5665 5685 5706 5712 5715 5713 5707 5701 5694 5685 5676 5668 5661 5654 5647 5639 5633 5626 5618 5613 5608 5603 5598 5593 5588 5583 5577 5571 5565 5557 5549 5541 5534 5526 5519 5512 5506 5501 5496 5491 5488 5485
5677 5668 5677 5658 5654 5647 5655 5670 5688 5702 5705 5707 5705 5700 5694 5685 5676 5666 5658 5650 5643 5636 5628 5621 5614 5607 5602 5597 5592 5586 5582 5577 5573 5567 5561 5554 5546 5538 5530 5522 5515 5508 5502 5497 5492 5487 5483 5479 5475
5691 5679 5656 5647 5638 5634 5649 5661 5674 5691 5694 5698 5698 5693 5686 5675 5664 5655 5647 5639 5632 5624 5616 5608 5602 5596 5591 5585 5580 5575 5571 5566 5561 5556 5549 5541 5534 5526 5518 5512 5505 5499 5493 5488 5483 5479 5474 5469 5465
5678 5672 5664 5648 5646 5638 5635 5654 5688 5694 5696 5695 5693 5687 5678 5666 5655 5645 5636 5629 5620 5611 5604 5596 5590 5584 5579 5573 5568 5564 5560 5555 5550 5543 5536 5529 5522 5514 5507 5501 5495 5490 5485 5480 5474 5469 5464 5459 5453
5688 5679 5661 5650 5648 5641 5637 5652 5695 5692 5695 5693 5688 5681 5671 5660 5648 5637 5628 5619 5610 5600 5593 5586 5579 5572 5567 5562 5557 5552 5548 5544 5538 5531 5524 5517 5510 5504 5497 5491 5486 5481 5477 5471 5465 5459 5452 5445 5439